Home   Weather   Killeen   Past weeks
Flag for USA

Past Weather in Killeen, Texas, USA — Yesterday and Last 2 Weeks

Now
55 °F

Sunny.


Feels Like: 55 °F
Forecast: 77 / 51 °F
Wind: No wind

Location: Killeen Municipal

Current Time: Mar 22, 2019 at 9:46:15 am

Latest Report: Mar 22, 2019 at 8:56 am


Visibility: 10 mi

Pressure: 30.23 "Hg

Humidity: 77%

Dew Point: 48 °F

Location of KilleenLocation

Past Weather in Killeen — Graph

°F

Killeen Temperature Yesterday

Maximum temperature yesterday: 76 °F (at 4:56 pm)
Minimum temperature yesterday: 39 °F (at 6:56 am)
Average temperature yesterday: 58 °F

High & Low Weather Summary for the Past Weeks

 TemperatureHumidityPressure
High82 °F (Mar 9, 2:56 pm)100% (Mar 10, 12:22 pm)30.54 "Hg (Mar 10, 12:22 pm)
Low38 °F (Mar 16, 6:56 am)13% (Mar 9, 2:56 pm)29.57 "Hg (Mar 13, 4:56 pm)
Average60 °F62%30.15 "Hg
* Reported Mar 7 6:56 am — Mar 22 7:56 am, Killeen. Weather by CustomWeather, © 2019

Note: Actual official high and low records may vary slightly from our data, if they occured in-between our weather recording intervals... More about our weather records

Advertising

Killeen Weather History for the Previous 24 Hours

Scroll right to see more
 ConditionsComfort  
Time TempWeatherWind HumidityBarometerVisibility
7:56 am
Fri, Mar 22
49 °FSunny.3 mph80%30.21 "Hg10 mi
6:56 am50 °FClear.No wind74%30.19 "Hg10 mi
5:56 am52 °FClear.3 mph61%30.18 "Hg10 mi
4:56 am54 °FClear.5 mph53%30.18 "Hg10 mi
3:56 am50 °FClear.No wind54%30.19 "Hg10 mi
2:56 am54 °FClear.3 mph47%30.19 "Hg10 mi
1:56 am57 °FClear.5 mph41%30.19 "Hg10 mi
12:56 am52 °FClear.6 mph55%30.20 "Hg10 mi
11:56 pm
Thu, Mar 21
57 °FClear.3 mph44%30.21 "Hg10 mi
10:56 pm60 °FClear.6 mph39%30.21 "Hg10 mi
9:56 pm59 °FClear.No wind42%30.20 "Hg10 mi
8:56 pm64 °FClear.5 mph35%30.19 "Hg10 mi
7:56 pm65 °FClear.6 mph34%30.19 "Hg10 mi
5:56 pm75 °FSunny.5 mph18%30.19 "Hg10 mi
4:56 pm76 °FSunny.6 mph18%30.19 "Hg10 mi
3:56 pm75 °FSunny.3 mph19%30.22 "Hg10 mi
2:56 pm73 °FSunny.6 mph19%30.24 "Hg10 mi
12:56 pm72 °FSunny.3 mph23%30.30 "Hg10 mi
11:56 am69 °FSunny.No wind26%30.32 "Hg10 mi
10:56 am66 °FSunny.7 mph32%30.33 "Hg10 mi
9:56 am59 °FSunny.6 mph51%30.34 "Hg10 mi
Weather by CustomWeather, © 2019

See weather overview